www.pogodaiklimat.ru

Погода и климат >> Архив погоды >> Хорватия >> Раб


ПОГОДА в Рабе

  • Прогноз погоды в Рабе
  • Монитор погоды в Рабе

АРХИВ ПОГОДЫ в Рабе

Время (UTC), дата Ветер
(напр.,м/с)
 
Видим.   Явления Облачность Т
(С)
Тd
(С)
f
(%)
Тe
(С)
Тes
(С)
Комфортность P
(гПа)
Po
(гПа)
Тmin
(С)
Tmax
(С)
R
(мм)
R24
(мм)
S
(см)
16 16.07 С 4 н/о н/о +28.7 +8.5 28 +28 +28 жарко 1011.1 1008.8
17 16.07 С 3 н/о н/о +28.1 +8.5 29 +28 +28 жарко 1011.2 1008.9
18 16.07 С 3 35 км ясно +27.2 +10.6 35 +28 +28 жарко 1010.9 1008.6 +30.0
19 16.07 С 3 35 км ясно +25.4 +11.6 42 +27 +27 жарко 1011.3 1009.0
20 16.07 СВ 2 35 км ясно +24.7 +11.0 42 +26 +26 жарко 1012.1 1009.8
21 16.07 СВ 1 н/о н/о +22.9 +8.3 39 +24 +24 комфорт 1012.9 1010.6
00 17.07 С 1 н/о н/о +20.8 +9.1 47 +23 +23 комфорт 1013.7 1011.3
03 17.07 С 1 н/о н/о +19.3 +8.4 49
04 17.07 С 1 н/о н/о +19.9 +7.7 45 +22 +22 комфорт 1013.2 1010.8
05 17.07 штиль 0 н/о н/о +20.1 +8.2 46 +21 +21 комфорт 1013.5 1011.1
06 17.07 В 1 40 км ясно +21.8 +11.8 53 +24 +29 комфорт 1012.9 1010.6 +18.6
07 17.07 Ю 1 35 км ясно +24.6 +12.6 47 +26 +35 жарко 1013.0 1010.7
08 17.07 Ю 1 35 км ясно +24.8 +12.8 47 +27 +40 жарко 1012.9 1010.6
09 17.07 ЮЗ 1 40 км 3/1 1000 м
[Cu med, cong Ci fib]
+26.4 +15.8 52 +30 +45 душно 1012.9 1010.6
10 17.07 ЮЗ 2 40 км 3/1 1000 м
[Cu med, cong Cs]
+26.6 +16.2 53 +30 +45 душно 1012.6 1010.3
11 17.07 ЮЗ 2 40 км 4/1 1000 м
[Cu med, cong Cs]
+27.1 +14.6 46 +30 +45 душно 1012.1 1009.8
12 17.07 ЮЗ 2 35 км 5/1 1000 м
[Cu med, cong Cs]
+27.5 +18.0 56 +32 +46 очень
душно
1011.9 1009.6
13 17.07 Ю 1 35 км 8/1 1000 м
[Cu med, cong Cs]
+28.2 +14.1 42 +30 +44 жарко 1011.7 1009.4
14 17.07 ЮЗ 1 н/о н/о +29.6 +13.0 36 +31 +31 жарко 1012.0 1009.7
15 17.07 Ю 2 н/о н/о +28.4 +16.1 47 +32 +32 душно 1011.9 1009.6
16 17.07 Ю 1 н/о н/о +27.3 +17.5 55 +31 +31 душно 1011.5 1009.2
17 17.07 штиль 0 н/о н/о +27.0 +16.1 51 +30 +30 душно 1011.3 1009.0
18 17.07 З 1 35 км 4/0
[Ci fib]
+25.9 +18.0 62 +30 +31 душно 1010.3 1008.0 +29.5
19 17.07 С 1 35 км 3/0
[Ci fib]
+24.6 +17.7 65 +29 +29 душно 1010.2 1007.9
20 17.07 штиль 0 35 км 4/0
[Ci fib]
+23.6 +16.0 62 +27 +27 жарко 1010.9 1008.6
21 17.07 СВ 1 н/о н/о +22.9 +14.5 59 +27 +27 душно 1011.2 1008.9
00 18.07 ЮВ 1 н/о н/о +21.4 +14.4 64 +24 +24 комфорт 1011.1 1008.8
03 18.07 СВ 1 н/о н/о +20.0 +14.4 70 +23 +23 комфорт 1011.0 1008.6
04 18.07 В 1 н/о н/о +20.3 +15.6 74 +24 +24 комфорт 1011.1 1008.7
05 18.07 СЗ 1 н/о н/о +20.7 +16.6 77 +25 +25 комфорт 1011.3 1009.0
06 18.07 ЮВ 1 30 км 5/3 1000 м
[Cu Sc Ac cast Ci fib]
+22.7 +18.9 79 +29 +31 очень
душно
1010.9 1008.6 +19.5
07 18.07 Ю 1 30 км 6/4 1000 м
[Cu Sc Ac cast]
+23.5 +18.5 74 +28 +32 душно 1010.9 1008.6
08 18.07 ЮЗ 1 30 км 8/8 1000 м
[Cu Sc]
+24.4 +19.4 74 +30 +32 очень
душно
1010.9 1008.6
09 18.07 Ю 2 30 км 8/5 1000 м
[Cu Sc Ac trans]
+24.3 +19.3 74 +29 +34 душно 1011.3 1009.0
10 18.07 Ю 1 30 км 8/3 1000 м
[Cu Sc Ac trans]
+26.7 +19.0 63 +32 +40 очень
душно
1011.4 1009.1
11 18.07 ЮЗ 1 30 км 8/3 1000 м
[Cu Sc Ac trans]
+26.8 +18.2 59 +31 +40 душно 1011.4 1009.1
12 18.07 ЮЗ 2 30 км 8/1 1000 м
[Cb calv Ac cast Cs]
+27.8 +19.3 60 +33 +43 очень
душно
1011.4 1009.1
13 18.07 ЮЗ 1 30 км 9/3 1000 м
[Cb calv Ac cuf Cs]
+28.8 +18.8 55 +34 +41 очень
душно
1011.4 1009.1
14 18.07 ЮЗ 2 н/о н/о +28.2 +17.8 53 +33 +33 очень
душно
1012.0 1009.7
15 18.07 ЮЗ 1 н/о н/о +29.4 +17.3 48 +33 +33 душно 1011.9 1009.6
16 18.07 ЮЗ 1 н/о н/о +28.4 +16.4 48 +32 +32 душно 1012.0 1009.7
17 18.07 штиль 0 н/о н/о +27.5 +15.9 49 +31 +31 душно 1012.1 1009.8
18 18.07 ЮВ 1 30 км 8/3 1000 м
[Cu Sc Ac trans Ci sp]
+26.4 +18.0 60 +31 +31 душно 1011.5 1009.2 +29.2
19 18.07 З 1 30 км 8/5 1000 м
[Cu Sc Ac trans Ci sp]
+25.9 +17.5 60 +30 +30 душно 1011.5 1009.2
20 18.07 СВ 1 30 км 8/8 1000 м
[Cu Sc Ci fib]
+25.1 +16.3 58 +28 +28 жарко 1012.4 1010.1
21 18.07 штиль 0 н/о н/о +24.2 +15.5 58 +27 +27 жарко 1013.3 1011.0
00 19.07 штиль 0 н/о н/о +23.6 +16.0 62 +27 +27 жарко 1014.1 1011.8
03 19.07 СВ 1 н/о н/о +21.3 +15.2 68 +24 +24 комфорт 1014.6 1012.2
04 19.07 С 1 н/о н/о +21.0 +14.9 68 +25 +25 комфорт 1014.7 1012.3
06 19.07 Ю 1 25 км 4/0
[Ci fib]
+23.7 +18.8 74 +28 +33 душно 1014.3 1012.0 +20.5
07 19.07 Ю 1 25 км 5/1 1000 м
[Cu med, cong Ci fib]
+24.5 +19.8 75 +30 +37 очень
душно
1014.7 1012.4
08 19.07 Ю 1 25 км 8/1 1000 м
[Cu med, cong Ci fib]
+26.3 +20.2 69 +32 +42 очень
душно
1015.1 1012.8
09 19.07 ЮЗ 2 25 км 9/1 1000 м
[Cb calv Cs]
+27.0 +21.1 70 +34 +45 очень
душно
1015.3 1013.0
10 19.07 ЮЗ 2 25 км 9/1 1000 м
[Cb calv Cs]
+27.3 +21.3 70 +35 +48 очень
душно
1015.4 1013.1
11 19.07 ЮЗ 2 25 км 6/1 1000 м
[Cb calv Ac cuf Ci fib]
+27.6 +21.1 68 +35 +47 очень
душно
1015.3 1013.0
12 19.07 ЮЗ 2 25 км 5/1 1000 м
[Cb calv Ac cuf Ci fib]
+28.3 +20.5 63 +35 +47 очень
душно
1015.3 1013.0
13 19.07 Ю 1 25 км 6/3 1000 м
[Cb cap Ac cuf Ci ing]
+28.6 +20.1 60 +35 +45 очень
душно
1015.3 1013.0
14 19.07 ЮЗ 1 н/о н/о +29.7 +20.1 56 +36 +36 очень
душно
1015.6 1013.3
15 19.07 ЮЗ 2 н/о н/о +29.7 +17.9 49 +34 +34 очень
душно
1015.7 1013.4
16 19.07 ЮЗ 1 н/о н/о +29.1 +16.7 47 +33 +33 очень
душно
1015.7 1013.4
17 19.07 Ю 1 н/о н/о +27.0 +18.4 59 +32 +32 очень
душно
1015.8 1013.5
18 19.07 Ю 1 30 км 5/1 1000 м
[Cu hum Ci fib]
+26.5 +17.6 58 +31 +31 душно 1015.0 1012.7 +29.6
19 19.07 ЮЗ 1 30 км 6/0
[Ci fib]
+25.5 +15.7 55 +29 +29 душно 1015.1 1012.8
20 19.07 СВ 1 30 км 4/0
[Ci fib]
+24.3 +14.8 55 +27 +27 жарко 1015.8 1013.5
21 19.07 СЗ 1 н/о н/о +23.6 +14.4 56 +26 +26 жарко 1016.9 1014.6
00 20.07 СВ 1 н/о н/о +22.5 +12.5 53 +25 +25 комфорт 1017.1 1014.8
03 20.07 С 1 н/о н/о +21.1 +13.4 61 +23 +23 комфорт 1017.1 1014.7
04 20.07 СВ 1 н/о н/о +21.1 +14.3 65 +24 +24 комфорт 1017.4 1015.0
05 20.07 штиль 0 н/о н/о +21.0 +13.8 63 +23 +23 комфорт 1017.6 1015.2
06 20.07 ЮВ 1 30 км 1/0
[Ci fib]
+23.4 +17.9 71 +29 +34 душно 1017.2 1014.9 +20.6
07 20.07 Ю 1 30 км ясно +25.1 +17.5 63 +29 +38 душно 1017.5 1015.2
08 20.07 Ю 1 30 км ясно +25.6 +19.6 69 +31 +44 очень
душно
1017.5 1015.2
09 20.07 ЮЗ 2 30 км 1/0
[Ci fib]
+26.7 +21.4 73 +34 +49 очень
душно
1017.8 1015.5
10 20.07 ЮЗ 2 30 км 1/1 1000 м
[Cu med, cong]
+26.6 +19.2 64 +32 +48 очень
душно
1018.0 1015.7
11 20.07 ЮЗ 2 30 км 1/1 1000 м
[Cu med, cong]
+27.7 +17.5 54 +32 +49 очень
душно
1018.2 1015.9
12 20.07 Ю 1 30 км 1/1 1000 м
[Cu med, cong]
+28.5 +20.3 61 +35 +54 опасность
солнечного
удара
1018.2 1015.9
13 20.07 Ю 1 30 км 3/1 1000 м
[Cu med, cong Ci fib]
+29.1 +18.6 53 +34 +49 очень
душно
1017.9 1015.6
14 20.07 ЮЗ 1 н/о н/о +30.1 +15.1 40 +32 +32 жарко 1018.6 1016.3
15 20.07 Ю 1 н/о н/о +29.1 +17.4 49 +33 +33 очень
душно
1018.3 1016.0
17 20.07 Ю 1 н/о н/о +28.0 +14.0 42 +30 +30 жарко 1017.8 1015.5
18 20.07 ЮЗ 1 30 км 5/0
[Ci fib]
+27.0 +16.8 54 +31 +31 душно 1017.4 1015.1 +30.1
19 20.07 В 1 30 км 3/0
[Ci fib]
+25.8 +14.6 50 +28 +28 жарко 1017.3 1015.0
20 20.07 ЮВ 1 30 км 3/0
[Ci sp]
+24.8 +12.0 45 +26 +26 жарко 1017.7 1015.4
21 20.07 штиль 0 н/о н/о +23.7 +11.1 45 +25 +25 комфорт 1019.0 1016.7
00 21.07 СВ 1 н/о н/о +22.7 +14.1 58
03 21.07 СВ 1 н/о н/о +21.7 +10.3 48 +23 +23 комфорт 1018.8 1016.4
04 21.07 штиль 0 н/о н/о +21.9 +13.6 59 +25 +25 комфорт 1019.0 1016.6
05 21.07 штиль 0 н/о н/о +22.5 +16.4 68 +27 +27 душно 1019.5 1017.1
06 21.07 штиль 0 30 км 9/0
[Cs]
+23.9 +19.0 74 +29 +33 душно 1018.9 1016.6 +21.4
07 21.07 Ю 1 25 км 9/0
[Cs]
+24.9 +19.4 72 +30 +37 душно 1018.9 1016.6
08 21.07 Ю 1 25 км 6/0
[Ci fib]
+26.6 +19.6 65 +32 +44 очень
душно
1019.3 1017.0
09 21.07 Ю 2 30 км 8/0
[Ci fib]
+27.2 +18.9 60 +32 +45 очень
душно
1019.0 1016.7
10 21.07 ЮЗ 1 30 км 8/0
[Cs]
+28.6 +20.0 60 +35 +52 опасность
солнечного
удара
1019.1 1016.8
11 21.07 ЮЗ 2 35 км 8/1 1000 м
[Cu hum Cs]
+29.0 +16.9 48 +33 +47 очень
душно
1019.1 1016.8
12 21.07 ЮЗ 2 35 км 6/1 1000 м
[Cu med, cong Cs]
+29.3 +16.8 47 +33 +47 душно 1019.1 1016.8
13 21.07 ЮЗ 1 35 км 3/1 1000 м
[Cu med, cong Ci fib]
+29.8 +19.0 52 +35 +50 очень
душно
1018.9 1016.6
14 21.07 ЮЗ 1 н/о н/о +31.3 +18.0 45 +36 +36 очень
душно
1019.1 1016.8
15 21.07 ЮЗ 2 н/о н/о +29.1 +22.9 69 +39 +39 очень
душно
1018.8 1016.5
16 21.07 Ю 1 н/о н/о +29.5 +18.4 51 +34 +34 очень
душно
1018.7 1016.4
17 21.07 З 1 н/о н/о +27.7 +19.6 61 +33 +33 очень
душно
1019.1 1016.8
18 21.07 штиль 0 30 км 8/0
[Cs]
+27.5 +19.8 63 +33 +34 очень
душно
1018.6 1016.3 +30.6
19 21.07 С 1 30 км 5/0
[Ci sp]
+27.1 +18.3 59 +32 +32 очень
душно
1018.8 1016.5
20 21.07 СЗ 2 30 км 3/0
[Ac lent Ci fib]
+27.0 +16.5 53 +31 +31 душно 1019.0 1016.7
21 21.07 СЗ 3 н/о н/о +26.6 +15.4 50 +29 +29 жарко 1019.7 1017.4
00 22.07 С 1 н/о н/о +24.8 +17.4 63 +29 +29 душно 1019.8 1017.5
03 22.07 С 1 н/о н/о +23.9 +16.7 64 +27 +27 жарко 1019.8 1017.5
04 22.07 С 1 н/о н/о +24.2 +16.8 63 +28 +28 душно 1019.7 1017.4
05 22.07 СЗ 1 н/о н/о +24.8 +17.8 65 +29 +29 душно 1020.1 1017.8
06 22.07 С 1 35 км 3/0
[Ci sp]
+26.6 +19.4 65 +32 +36 очень
душно
1019.5 1017.2 +23.5
07 22.07 Ю 1 35 км 3/0
[Ci sp]
+28.0 +22.0 70 +36 +44 очень
душно
1019.6 1017.3
08 22.07 З 1 35 км 3/1 1000 м
[Cu hum Ci sp]
+29.6 +19.1 53 +35 +46 очень
душно
1019.7 1017.4
09 22.07 ЮЗ 1 35 км 3/1 1000 м
[Cu hum Ci sp]
+29.3 +22.1 65 +38 +53 опасность
солнечного
удара
1020.1 1017.8
10 22.07 ЮЗ 1 35 км 4/1 1000 м
[Cu hum Ci sp]
+31.3 +18.5 47 +36 +53 опасность
солнечного
удара
1019.9 1017.6
11 22.07 ЮЗ 1 35 км 4/1 1000 м
[Cu hum Ci sp]
+31.9 +19.5 48 +38 +56 опасность
солнечного
удара
1019.8 1017.6
12 22.07 Ю 1 30 км 5/1 1000 м
[Cu hum Ci sp]
+31.4 +19.9 51 +38 +55 опасность
солнечного
удара
1019.4 1017.2
13 22.07 ЮЗ 1 30 км 5/1 1000 м
[Cu hum Ci sp]
+32.5 +21.8 53 +41 +55 опасность
перегрева
1018.9 1016.7
14 22.07 С 4 н/о н/о +34.5 +12.9 27 +35 +35 очень
жарко
1019.2 1016.9
15 22.07 н/о н/о +34.8 +12.5 26 1019.0 1016.7
16 22.07 н/о н/о +34.4 +10.3 23 1018.7 1016.4
17 22.07 н/о н/о +33.1 +12.2 28 1018.6 1016.3
18 22.07 С 1 30 км 8/0
[Cs]
+31.8 +14.7 36 +34 +34 душно 1018.2 1016.0 +34.6
19 22.07 С 2 30 км 8/0
[Cs]
+29.7 +14.6 40 +32 +32 душно 1018.6 1016.3
20 22.07 СВ 1 30 км 3/0
[Ci sp]
+28.4 +13.5 40 +30 +30 жарко 1018.8 1016.5
21 22.07 СВ 2 н/о н/о +27.1 +11.2 37
00 23.07 СВ 1 н/о н/о +25.2 +12.8 46 +27 +27 жарко 1019.5 1017.2
03 23.07 С 1 н/о н/о +24.1 +11.5 45 +26 +26 жарко 1019.0 1016.7
04 23.07 СВ 1 н/о н/о +24.0 +12.1 47 +26 +26 жарко 1019.2 1016.9
05 23.07 штиль 0 н/о н/о +24.3 +13.3 50 +26 +26 жарко 1019.1 1016.8
06 23.07 Ю 1 30 км 1/0
[Ci fib]
+25.9 +16.2 55 +29 +33 душно 1018.5 1016.2 +23.5
07 23.07 ЮЗ 1 35 км 1/0
[Ci fib]
+28.4 +15.8 46 +31 +40 душно 1018.8 1016.5
08 23.07 Ю 1 35 км 1/0
[Ci fib]
+29.4 +18.5 52 +34 +47 очень
душно
1018.9 1016.6
09 23.07 Ю 1 35 км 1/1 1000 м
[Cu hum Ci fib]
+31.5 +17.6 43 +35 +51 опасность
солнечного
удара
1018.6 1016.4
10 23.07 Ю 1 35 км 1/1 1000 м
[Cu hum Ci fib]
+31.2 +18.4 47 +36 +54 опасность
солнечного
удара
1018.6 1016.3
11 23.07 ЮЗ 2 35 км 1/1 1000 м
[Cu hum]
+31.6 +18.0 44 +36 +52 опасность
солнечного
удара
1018.0 1015.8
12 23.07 ЮЗ 1 35 км 1/1 1000 м
[Cu hum Ci fib]
+31.8 +18.1 44 +36 +54 опасность
солнечного
удара
1017.6 1015.4
13 23.07 СЗ 2 35 км 3/3 1000 м
[Cu hum]
+33.4 +17.1 38 +37 +47 очень
душно
1017.1 1014.9
14 23.07 СЗ 3 н/о н/о +35.8 +10.8 22 +35 +35 очень
жарко
1017.1 1014.9
15 23.07 С 3 н/о н/о +35.7 +10.8 22 +35 +35 очень
жарко
1016.8 1014.6
17 23.07 С 3 н/о н/о +32.3 +14.5 34 +34 +34 душно 1016.4 1014.1

 

Местоположение метеостанции Раб (Хорватия): широта 44.75 долгота 14.77 высота над уровнем моря 20 м.

В архиве по умолчанию представлена погода в Рабе за последнюю неделю. Архивные данные за месяц целиком и за предыдущие месяцы, начиная с января 2011 года, Вы можете получить, выбрав интересующий диапазон дат из раскрывающегося списка и нажав кнопку "Ввод!".


*Определитесь, кто Вы:
робот инопланетянин человек

Внимание! Время в таблицах - всемирное. Для получения местного времени необходимо прибавить поправку, которая равна 1 ч.

Смотрите также архив погоды в соседних городах и на ближайших метеорологических станциях:

Погода в Завизани (Хорватия) (18 км)
Погода в Сене (Хорватия) (30 км)
Погода в Мали-Лошине (Хорватия) (34 км)
Погода в Госпиче (Хорватия) (52 км)
Погода в Риека аэропорту (Хорватия) (54 км)
Погода в Огулине (Хорватия) (68 км)
Погода в Пуле (Хорватия) (69 км)
Погода в Риеке (Хорватия) (69 км)
Погода в Задаре (Хорватия) (78 км)
Погода в Пазине (Хорватия) (85 км)

Пояснения к столбцам:

Ветер - указаны скорость ветра в м/с - средняя за 10 мин, порывы в срок и между сроками (в фигурных скобках) и направление, откуда дует ветер: С - северный, СВ - северо-восточный, В - восточный, ЮВ - юго-восточный, Ю - южный, ЮЗ - юго-западный, З - западный, СЗ - северо-западный.
Видимость - горизонтальная дальность видимости в метрах или километрах. При видимости от 1 до 10 км при отсутствии осадков обычно наблюдается дымка, при ухудшении видимости до 1 км и менее - туман. В сухую погоду видимость может ухудшаться дымом, пылью или мглою.
Явления - указаны атмосферные явления, наблюдавшиеся в срок или в последний час перед сроком; фигурными скобками обозначены явления, наблюдавшиеся между сроками (за 1-3 часа до срока); квадратными скобками обозначены град или гололедные отложения с указанием их диаметра в мм.
Облачность - указаны через наклонную черту общая и нижняя облачность в баллах и высота нижней границы облаков в метрах; квадратными скобками обозначены формы облаков: Ci - перистые, Cs - перисто-слоистые, Cc - перисто-кучевые, Ac - высококучевые, As - высокослоистые, Sc - слоисто-кучевые, Ns - слоисто-дождевые, Cu - кучевые, Cb - кучево-дождевые. Подробнее классификацию облаков см. в Атласе облаков (PDF).
T - Температура воздуха - температура, измеренная на высоте 2 м над землей.
Td - Температура точки росы - температура, при понижении до которой содержащийся в воздухе водяной пар достигнет насыщения.
f - Относительная влажность воздуха - влажноcть воздуха, измеренная на высоте 2 м над землей.
Te - Эффективная температура - температура, которую ощущает одетый по сезону человек в тени. Характеристика душности погоды. При расчете учитывается влияние влажности воздуха и скорости ветра на теплоощущения человека.
Tes - Эффективная температура на солнце - температура, которую ощущает человек, с поправкой на солнечный нагрев. Характеристика знойности погоды. Зависит от высоты солнца над горизонтом, облачности и скорости ветра. Ночью, в пасмурную погоду, а также при ветре 12 м/с и более поправка равна нулю.
P - Атмосферное давление - приведенное к уровню моря атмосферное давление.
Po - Атмосферное давление - измеренное на уровне метеостанции атмосферное давление.
Tmin - Минимальная температура - минимум температуры воздуха на высоте 2 м над землей.
Tmax - Максимальная температура - максимум температуры воздуха на высоте 2 м над землей.
R - Количество осадков - Количество выпавших осадков за период времени, мм. При наведении курсора мыши на число - период времени, за который выпало указанное количество осадков.
R24 - Количество осадков - Количество выпавших осадков за 24 часа, мм.
S - Снежный покров - Высота снежного покрова, см. При наведении курсора мыши на число - состояние снежного покрова и степень покрытия местности в баллах.